owner,sensor,date,latitude,longitude,vertical_datum,wind_speed,wind_to_direction,wind_speed_of_gust,qcFlag 
LOOP,urn:ioos:station:wmo:lopl1:1,2011-12-01T00:14:00Z,28.8850,-90.0250,10.0,6.0,32.0,8.3,'11111222,11111222,11111222' 
LOOP,urn:ioos:station:wmo:lopl1:1,2011-12-01T00:29:00Z,28.8850,-90.0250,10.0,6.2,5.0,8.5,'11111222,11111222,11111222' 
LOOP,urn:ioos:station:wmo:lopl1:1,2011-12-01T00:44:00Z,28.8850,-90.0250,10.0,6.2,12.0,8.5,'11111222,11111222,11111222' 
LOOP,urn:ioos:station:wmo:lopl1:1,2011-12-01T00:59:00Z,28.8850,-90.0250,10.0,7.8,3.0,9.2,'11111222,11111222,11111222' 
LOOP,urn:ioos:station:wmo:lopl1:1,2011-12-01T01:14:00Z,28.8850,-90.0250,10.0,7.0,6.0,9.4,'11111222,11111222,11111222' 
LOOP,urn:ioos:station:wmo:lopl1:1,2011-12-01T01:29:00Z,28.8850,-90.0250,10.0,7.4,14.0,8.5,'11111222,11111222,11111222' 
LOOP,urn:ioos:station:wmo:lopl1:1,2011-12-01T01:44:00Z,28.8850,-90.0250,10.0,6.9,8.0,9.1,'11111222,11111222,11111222' 
LOOP,urn:ioos:station:wmo:lopl1:1,2011-12-01T01:59:00Z,28.8850,-90.0250,10.0,5.9,2.0,7.5,'11111222,11111222,11111222' 
LOOP,urn:ioos:station:wmo:lopl1:1,2011-12-01T02:14:00Z,28.8850,-90.0250,10.0,6.4,11.0,7.8,'11111222,11111222,11111222' 
LOOP,urn:ioos:station:wmo:lopl1:1,2011-12-01T02:29:00Z,28.8850,-90.0250,10.0,5.8,10.0,8.7,'11111222,11111222,11111222' 
LOOP,urn:ioos:station:wmo:lopl1:1,2011-12-01T02:44:00Z,28.8850,-90.0250,10.0,5.7,22.0,7.5,'11111222,11111222,11111222' 
LOOP,urn:ioos:station:wmo:lopl1:1,2011-12-01T02:59:00Z,28.8850,-90.0250,10.0,5.4,18.0,6.7,'11111222,11111222,11111222' 
LOOP,urn:ioos:station:wmo:lopl1:1,2011-12-01T03:19:00Z,28.8850,-90.0250,10.0,5.2,15.0,6.7,'11111222,11111222,11111222' 
LOOP,urn:ioos:station:wmo:lopl1:1,2011-12-01T03:34:00Z,28.8850,-90.0250,10.0,5.1,16.0,7.2,'11111222,11111222,11111222' 
LOOP,urn:ioos:station:wmo:lopl1:1,2011-12-01T03:49:00Z,28.8850,-90.0250,10.0,5.4,20.0,7.4,'11111222,11111222,11111222' 
LOOP,urn:ioos:station:wmo:lopl1:1,2011-12-01T04:04:00Z,28.8850,-90.0250,10.0,4.6,22.0,6.6,'11111222,11111222,11111222' 
LOOP,urn:ioos:station:wmo:lopl1:1,2011-12-01T04:19:00Z,28.8850,-90.0250,10.0,4.3,28.0,6.4,'11111222,11111222,11111222' 
LOOP,urn:ioos:station:wmo:lopl1:1,2011-12-01T04:34:00Z,28.8850,-90.0250,10.0,5.6,22.0,7.1,'11111222,11111222,11111222' 
LOOP,urn:ioos:station:wmo:lopl1:1,2011-12-01T04:49:00Z,28.8850,-90.0250,10.0,4.5,32.0,7.0,'11111222,11111222,11111222' 
LOOP,urn:ioos:station:wmo:lopl1:1,2011-12-01T05:04:00Z,28.8850,-90.0250,10.0,4.9,29.0,7.2,'11111222,11111222,11111222' 
LOOP,urn:ioos:station:wmo:lopl1:1,2011-12-01T05:19:00Z,28.8850,-90.0250,10.0,4.2,52.0,5.9,'11111222,11111222,11111222' 
LOOP,urn:ioos:station:wmo:lopl1:1,2011-12-01T05:34:00Z,28.8850,-90.0250,10.0,4.3,34.0,5.9,'11111222,11111222,11111222' 
LOOP,urn:ioos:station:wmo:lopl1:1,2011-12-01T05:49:00Z,28.8850,-90.0250,10.0,5.1,23.0,6.8,'11111222,11111222,11111222' 
LOOP,urn:ioos:station:wmo:lopl1:1,2011-12-01T06:04:00Z,28.8850,-90.0250,10.0,4.9,37.0,5.8,'11111222,11111222,11111222' 
LOOP,urn:ioos:station:wmo:lopl1:1,2011-12-01T06:19:00Z,28.8850,-90.0250,10.0,4.5,61.0,5.9,'11111222,11111222,11111222' 
LOOP,urn:ioos:station:wmo:lopl1:1,2011-12-01T06:34:00Z,28.8850,-90.0250,10.0,4.2,37.0,6.4,'11111222,11111222,11111222' 
LOOP,urn:ioos:station:wmo:lopl1:1,2011-12-01T06:49:00Z,28.8850,-90.0250,10.0,3.9,65.0,5.6,'11111222,11111222,11111222' 
LOOP,urn:ioos:station:wmo:lopl1:1,2011-12-01T07:04:00Z,28.8850,-90.0250,10.0,5.0,63.0,7.0,'11111222,11111222,11111222' 
LOOP,urn:ioos:station:wmo:lopl1:1,2011-12-01T07:19:00Z,28.8850,-90.0250,10.0,5.0,64.0,6.5,'11111222,11111222,11111222' 
LOOP,urn:ioos:station:wmo:lopl1:1,2011-12-01T07:34:00Z,28.8850,-90.0250,10.0,4.8,77.0,6.0,'11111222,11111222,11111222' 
LOOP,urn:ioos:station:wmo:lopl1:1,2011-12-01T07:49:00Z,28.8850,-90.0250,10.0,4.7,75.0,6.5,'11111222,11111222,11111222' 
LOOP,urn:ioos:station:wmo:lopl1:1,2011-12-01T08:04:00Z,28.8850,-90.0250,10.0,4.8,63.0,6.4,'11111222,11111222,11111222' 
LOOP,urn:ioos:station:wmo:lopl1:1,2011-12-01T08:19:00Z,28.8850,-90.0250,10.0,4.2,77.0,5.6,'11111222,11111222,11111222' 
LOOP,urn:ioos:station:wmo:lopl1:1,2011-12-01T08:34:00Z,28.8850,-90.0250,10.0,4.2,71.0,6.0,'11111222,11111222,11111222' 
LOOP,urn:ioos:station:wmo:lopl1:1,2011-12-01T08:49:00Z,28.8850,-90.0250,10.0,4.3,83.0,6.2,'11111222,11111222,11111222' 
LOOP,urn:ioos:station:wmo:lopl1:1,2011-12-01T09:04:00Z,28.8850,-90.0250,10.0,4.2,56.0,5.6,'11111222,11111222,11111222' 
LOOP,urn:ioos:station:wmo:lopl1:1,2011-12-01T09:19:00Z,28.8850,-90.0250,10.0,4.7,57.0,6.3,'11111222,11111222,11111222' 
LOOP,urn:ioos:station:wmo:lopl1:1,2011-12-01T09:34:00Z,28.8850,-90.0250,10.0,4.8,66.0,7.1,'11111222,11111222,11111222' 
LOOP,urn:ioos:station:wmo:lopl1:1,2011-12-01T09:49:00Z,28.8850,-90.0250,10.0,5.1,62.0,6.6,'11111222,11111222,11111222' 
LOOP,urn:ioos:station:wmo:lopl1:1,2011-12-01T10:04:00Z,28.8850,-90.0250,10.0,5.3,70.0,6.5,'11111222,11111222,11111222' 
LOOP,urn:ioos:station:wmo:lopl1:1,2011-12-01T10:19:00Z,28.8850,-90.0250,10.0,5.2,60.0,6.9,'11111222,11111222,11111222' 
LOOP,urn:ioos:station:wmo:lopl1:1,2011-12-01T10:34:00Z,28.8850,-90.0250,10.0,4.7,68.0,6.4,'11111222,11111222,11111222' 
LOOP,urn:ioos:station:wmo:lopl1:1,2011-12-01T10:49:00Z,28.8850,-90.0250,10.0,5.0,76.0,6.3,'11111222,11111222,11111222' 
LOOP,urn:ioos:station:wmo:lopl1:1,2011-12-01T11:04:00Z,28.8850,-90.0250,10.0,4.9,57.0,6.8,'11111222,11111222,11111222' 
LOOP,urn:ioos:station:wmo:lopl1:1,2011-12-01T11:19:00Z,28.8850,-90.0250,10.0,4.6,66.0,6.2,'11111222,11111222,11111222' 
LOOP,urn:ioos:station:wmo:lopl1:1,2011-12-01T11:34:00Z,28.8850,-90.0250,10.0,4.6,64.0,6.1,'11111222,11111222,11111222' 
LOOP,urn:ioos:station:wmo:lopl1:1,2011-12-01T11:49:00Z,28.8850,-90.0250,10.0,4.9,65.0,6.3,'11111222,11111222,11111222' 
LOOP,urn:ioos:station:wmo:lopl1:1,2011-12-01T12:04:00Z,28.8850,-90.0250,10.0,4.8,82.0,6.5,'11111222,11111222,11111222' 
LOOP,urn:ioos:station:wmo:lopl1:1,2011-12-01T12:19:00Z,28.8850,-90.0250,10.0,5.4,62.0,7.1,'11111222,11111222,11111222' 
LOOP,urn:ioos:station:wmo:lopl1:1,2011-12-01T12:34:00Z,28.8850,-90.0250,10.0,5.4,71.0,7.1,'11111222,11111222,11111222' 
LOOP,urn:ioos:station:wmo:lopl1:1,2011-12-01T12:54:00Z,28.8850,-90.0250,10.0,6.2,66.0,8.0,'11111222,11111222,11111222' 
LOOP,urn:ioos:station:wmo:lopl1:1,2011-12-01T13:09:00Z,28.8850,-90.0250,10.0,6.0,68.0,8.0,'11111222,11111222,11111222' 
LOOP,urn:ioos:station:wmo:lopl1:1,2011-12-01T13:24:00Z,28.8850,-90.0250,10.0,5.7,67.0,8.0,'11111222,11111222,11111222' 
LOOP,urn:ioos:station:wmo:lopl1:1,2011-12-01T13:39:00Z,28.8850,-90.0250,10.0,6.4,65.0,8.0,'11111222,11111222,11111222' 
LOOP,urn:ioos:station:wmo:lopl1:1,2011-12-01T13:54:00Z,28.8850,-90.0250,10.0,7.0,52.0,8.9,'11111222,11111222,11111222' 
LOOP,urn:ioos:station:wmo:lopl1:1,2011-12-01T14:09:00Z,28.8850,-90.0250,10.0,6.7,67.0,8.3,'11111222,11111222,11111222' 
LOOP,urn:ioos:station:wmo:lopl1:1,2011-12-01T14:24:00Z,28.8850,-90.0250,10.0,7.6,64.0,9.4,'11111222,11111222,11111222' 
LOOP,urn:ioos:station:wmo:lopl1:1,2011-12-01T14:39:00Z,28.8850,-90.0250,10.0,7.6,63.0,9.6,'11111222,11111222,11111222' 
LOOP,urn:ioos:station:wmo:lopl1:1,2011-12-01T14:54:00Z,28.8850,-90.0250,10.0,8.9,58.0,11.7,'11111222,11111222,11111222' 
LOOP,urn:ioos:station:wmo:lopl1:1,2011-12-01T15:09:00Z,28.8850,-90.0250,10.0,8.8,68.0,10.5,'11111222,11111222,11111222' 
LOOP,urn:ioos:station:wmo:lopl1:1,2011-12-01T15:24:00Z,28.8850,-90.0250,10.0,8.2,68.0,10.8,'11111222,11111222,11111222' 
LOOP,urn:ioos:station:wmo:lopl1:1,2011-12-01T15:39:00Z,28.8850,-90.0250,10.0,7.5,65.0,10.0,'11111222,11111222,11111222' 
LOOP,urn:ioos:station:wmo:lopl1:1,2011-12-01T15:54:00Z,28.8850,-90.0250,10.0,7.1,66.0,8.3,'11111222,11111222,11111222' 
LOOP,urn:ioos:station:wmo:lopl1:1,2011-12-01T16:09:00Z,28.8850,-90.0250,10.0,7.0,74.0,9.0,'11111222,11111222,11111222' 
LOOP,urn:ioos:station:wmo:lopl1:1,2011-12-01T16:24:00Z,28.8850,-90.0250,10.0,7.0,78.0,8.3,'11111222,11111222,11111222' 
LOOP,urn:ioos:station:wmo:lopl1:1,2011-12-01T16:39:00Z,28.8850,-90.0250,10.0,7.1,79.0,9.6,'11111222,11111222,11111222' 
LOOP,urn:ioos:station:wmo:lopl1:1,2011-12-01T16:54:00Z,28.8850,-90.0250,10.0,7.1,82.0,9.0,'11111222,11111222,11111222' 
LOOP,urn:ioos:station:wmo:lopl1:1,2011-12-01T17:09:00Z,28.8850,-90.0250,10.0,7.1,79.0,9.1,'11111222,11111222,11111222' 
LOOP,urn:ioos:station:wmo:lopl1:1,2011-12-01T17:24:00Z,28.8850,-90.0250,10.0,7.1,72.0,8.8,'11111222,11111222,11111222' 
LOOP,urn:ioos:station:wmo:lopl1:1,2011-12-01T17:39:00Z,28.8850,-90.0250,10.0,6.7,74.0,9.3,'11111222,11111222,11111222' 
LOOP,urn:ioos:station:wmo:lopl1:1,2011-12-01T17:54:00Z,28.8850,-90.0250,10.0,6.3,74.0,8.0,'11111222,11111222,11111222' 
LOOP,urn:ioos:station:wmo:lopl1:1,2011-12-01T18:09:00Z,28.8850,-90.0250,10.0,6.2,81.0,7.3,'11111222,11111222,11111222' 
LOOP,urn:ioos:station:wmo:lopl1:1,2011-12-01T18:24:00Z,28.8850,-90.0250,10.0,6.1,70.0,7.8,'11111222,11111222,11111222' 
LOOP,urn:ioos:station:wmo:lopl1:1,2011-12-01T18:39:00Z,28.8850,-90.0250,10.0,6.4,66.0,8.1,'11111222,11111222,11111222' 
LOOP,urn:ioos:station:wmo:lopl1:1,2011-12-01T18:54:00Z,28.8850,-90.0250,10.0,6.4,54.0,8.7,'11111222,11111222,11111222' 
LOOP,urn:ioos:station:wmo:lopl1:1,2011-12-01T19:09:00Z,28.8850,-90.0250,10.0,5.7,66.0,8.1,'11111222,11111222,11111222' 
LOOP,urn:ioos:station:wmo:lopl1:1,2011-12-01T19:24:00Z,28.8850,-90.0250,10.0,5.7,68.0,8.0,'11111222,11111222,11111222' 
LOOP,urn:ioos:station:wmo:lopl1:1,2011-12-01T19:39:00Z,28.8850,-90.0250,10.0,6.4,67.0,8.1,'11111222,11111222,11111222' 
LOOP,urn:ioos:station:wmo:lopl1:1,2011-12-01T19:54:00Z,28.8850,-90.0250,10.0,6.7,65.0,8.6,'11111222,11111222,11111222' 
LOOP,urn:ioos:station:wmo:lopl1:1,2011-12-01T20:09:00Z,28.8850,-90.0250,10.0,6.8,59.0,8.3,'11111222,11111222,11111222' 
LOOP,urn:ioos:station:wmo:lopl1:1,2011-12-01T20:24:00Z,28.8850,-90.0250,10.0,6.7,66.0,8.2,'11111222,11111222,11111222' 
LOOP,urn:ioos:station:wmo:lopl1:1,2011-12-01T20:39:00Z,28.8850,-90.0250,10.0,6.1,71.0,7.1,'11111222,11111222,11111222' 
LOOP,urn:ioos:station:wmo:lopl1:1,2011-12-01T20:54:00Z,28.8850,-90.0250,10.0,6.0,49.0,8.9,'11111222,11111222,11111222' 
LOOP,urn:ioos:station:wmo:lopl1:1,2011-12-01T21:09:00Z,28.8850,-90.0250,10.0,5.9,70.0,7.5,'11111222,11111222,11111222' 
LOOP,urn:ioos:station:wmo:lopl1:1,2011-12-01T21:24:00Z,28.8850,-90.0250,10.0,5.7,63.0,7.7,'11111222,11111222,11111222' 
LOOP,urn:ioos:station:wmo:lopl1:1,2011-12-01T21:39:00Z,28.8850,-90.0250,10.0,6.0,64.0,7.4,'11111222,11111222,11111222' 
LOOP,urn:ioos:station:wmo:lopl1:1,2011-12-01T21:54:00Z,28.8850,-90.0250,10.0,6.6,65.0,9.0,'11111222,11111222,11111222' 
LOOP,urn:ioos:station:wmo:lopl1:1,2011-12-01T22:09:00Z,28.8850,-90.0250,10.0,6.2,62.0,9.0,'11111222,11111222,11111222' 
LOOP,urn:ioos:station:wmo:lopl1:1,2011-12-01T22:24:00Z,28.8850,-90.0250,10.0,6.7,67.0,8.7,'11111222,11111222,11111222' 
LOOP,urn:ioos:station:wmo:lopl1:1,2011-12-01T22:44:00Z,28.8850,-90.0250,10.0,6.1,55.0,7.8,'11111222,11111222,11111222' 
LOOP,urn:ioos:station:wmo:lopl1:1,2011-12-01T22:59:00Z,28.8850,-90.0250,10.0,5.5,61.0,7.7,'11111222,11111222,11111222' 
LOOP,urn:ioos:station:wmo:lopl1:1,2011-12-01T23:14:00Z,28.8850,-90.0250,10.0,5.8,54.0,7.4,'11111222,11111222,11111222' 
LOOP,urn:ioos:station:wmo:lopl1:1,2011-12-01T23:29:00Z,28.8850,-90.0250,10.0,6.0,59.0,7.9,'11111222,11111222,11111222' 
LOOP,urn:ioos:station:wmo:lopl1:1,2011-12-01T23:44:00Z,28.8850,-90.0250,10.0,5.6,65.0,8.0,'11111222,11111222,11111222' 
LOOP,urn:ioos:station:wmo:lopl1:1,2011-12-01T23:59:00Z,28.8850,-90.0250,10.0,6.2,44.0,8.8,'11111222,11111222,11111222' 
LOOP,urn:ioos:station:wmo:lopl1:1,2011-12-02T00:14:00Z,28.8850,-90.0250,10.0,6.5,43.0,8.1,'11111222,11111222,11111222' 
LOOP,urn:ioos:station:wmo:lopl1:1,2011-12-02T00:29:00Z,28.8850,-90.0250,10.0,6.2,75.0,7.7,'11111222,11111222,11111222' 
LOOP,urn:ioos:station:wmo:lopl1:1,2011-12-02T00:44:00Z,28.8850,-90.0250,10.0,6.3,66.0,7.9,'11111222,11111222,11111222' 
LOOP,urn:ioos:station:wmo:lopl1:1,2011-12-02T00:59:00Z,28.8850,-90.0250,10.0,6.5,57.0,8.4,'11111222,11111222,11111222' 
LOOP,urn:ioos:station:wmo:lopl1:1,2011-12-02T01:14:00Z,28.8850,-90.0250,10.0,6.7,66.0,8.1,'11111222,11111222,11111222' 
LOOP,urn:ioos:station:wmo:lopl1:1,2011-12-02T01:29:00Z,28.8850,-90.0250,10.0,7.7,69.0,9.3,'11111222,11111222,11111222' 
LOOP,urn:ioos:station:wmo:lopl1:1,2011-12-02T01:44:00Z,28.8850,-90.0250,10.0,7.7,71.0,10.2,'11111222,11111222,11111222' 
LOOP,urn:ioos:station:wmo:lopl1:1,2011-12-02T01:59:00Z,28.8850,-90.0250,10.0,7.3,77.0,8.8,'11111222,11111222,11111222' 
LOOP,urn:ioos:station:wmo:lopl1:1,2011-12-02T02:14:00Z,28.8850,-90.0250,10.0,6.8,83.0,8.5,'11111222,11111222,11111222' 
LOOP,urn:ioos:station:wmo:lopl1:1,2011-12-02T02:29:00Z,28.8850,-90.0250,10.0,6.4,89.0,8.2,'11111222,11111222,11111222' 
LOOP,urn:ioos:station:wmo:lopl1:1,2011-12-02T02:44:00Z,28.8850,-90.0250,10.0,6.7,75.0,8.7,'11111222,11111222,11111222' 
LOOP,urn:ioos:station:wmo:lopl1:1,2011-12-02T02:59:00Z,28.8850,-90.0250,10.0,6.5,72.0,7.8,'11111222,11111222,11111222' 
LOOP,urn:ioos:station:wmo:lopl1:1,2011-12-02T03:14:00Z,28.8850,-90.0250,10.0,6.3,79.0,8.6,'11111222,11111222,11111222' 
LOOP,urn:ioos:station:wmo:lopl1:1,2011-12-02T03:29:00Z,28.8850,-90.0250,10.0,6.1,81.0,8.0,'11111222,11111222,11111222' 
LOOP,urn:ioos:station:wmo:lopl1:1,2011-12-02T03:44:00Z,28.8850,-90.0250,10.0,5.5,84.0,7.4,'11111222,11111222,11111222' 
LOOP,urn:ioos:station:wmo:lopl1:1,2011-12-02T03:59:00Z,28.8850,-90.0250,10.0,4.9,73.0,6.5,'11111222,11111222,11111222' 
LOOP,urn:ioos:station:wmo:lopl1:1,2011-12-02T04:14:00Z,28.8850,-90.0250,10.0,5.7,93.0,7.0,'11111222,11111222,11111222' 
LOOP,urn:ioos:station:wmo:lopl1:1,2011-12-02T04:29:00Z,28.8850,-90.0250,10.0,5.5,84.0,7.2,'11111222,11111222,11111222' 
LOOP,urn:ioos:station:wmo:lopl1:1,2011-12-02T04:44:00Z,28.8850,-90.0250,10.0,5.5,79.0,6.7,'11111222,11111222,11111222' 
LOOP,urn:ioos:station:wmo:lopl1:1,2011-12-02T04:59:00Z,28.8850,-90.0250,10.0,6.2,77.0,7.7,'11111222,11111222,11111222' 
LOOP,urn:ioos:station:wmo:lopl1:1,2011-12-02T05:14:00Z,28.8850,-90.0250,10.0,6.0,82.0,7.7,'11111222,11111222,11111222' 
LOOP,urn:ioos:station:wmo:lopl1:1,2011-12-02T05:29:00Z,28.8850,-90.0250,10.0,5.2,89.0,6.2,'11111222,11111222,11111222' 
LOOP,urn:ioos:station:wmo:lopl1:1,2011-12-02T05:44:00Z,28.8850,-90.0250,10.0,4.7,82.0,6.5,'11111222,11111222,11111222' 
LOOP,urn:ioos:station:wmo:lopl1:1,2011-12-02T05:59:00Z,28.8850,-90.0250,10.0,4.7,69.0,5.6,'11111222,11111222,11111222' 
LOOP,urn:ioos:station:wmo:lopl1:1,2011-12-02T06:14:00Z,28.8850,-90.0250,10.0,4.3,71.0,5.5,'11111222,11111222,11111222' 
LOOP,urn:ioos:station:wmo:lopl1:1,2011-12-02T06:29:00Z,28.8850,-90.0250,10.0,4.5,84.0,6.0,'11111222,11111222,11111222' 
LOOP,urn:ioos:station:wmo:lopl1:1,2011-12-02T06:44:00Z,28.8850,-90.0250,10.0,4.4,78.0,5.5,'11111222,11111222,11111222' 
LOOP,urn:ioos:station:wmo:lopl1:1,2011-12-02T06:59:00Z,28.8850,-90.0250,10.0,5.3,82.0,6.7,'11111222,11111222,11111222' 
LOOP,urn:ioos:station:wmo:lopl1:1,2011-12-02T07:14:00Z,28.8850,-90.0250,10.0,5.3,80.0,6.9,'11111222,11111222,11111222' 
LOOP,urn:ioos:station:wmo:lopl1:1,2011-12-02T07:29:00Z,28.8850,-90.0250,10.0,4.7,85.0,6.1,'11111222,11111222,11111222' 
LOOP,urn:ioos:station:wmo:lopl1:1,2011-12-02T07:44:00Z,28.8850,-90.0250,10.0,4.6,66.0,6.4,'11111222,11111222,11111222' 
LOOP,urn:ioos:station:wmo:lopl1:1,2011-12-02T07:59:00Z,28.8850,-90.0250,10.0,4.3,61.0,6.1,'11111222,11111222,11111222' 
LOOP,urn:ioos:station:wmo:lopl1:1,2011-12-02T08:19:00Z,28.8850,-90.0250,10.0,5.0,37.0,6.7,'11111222,11111222,11111222' 
LOOP,urn:ioos:station:wmo:lopl1:1,2011-12-02T08:34:00Z,28.8850,-90.0250,10.0,5.4,55.0,7.4,'11111222,11111222,11111222' 
LOOP,urn:ioos:station:wmo:lopl1:1,2011-12-02T08:49:00Z,28.8850,-90.0250,10.0,5.4,30.0,7.8,'11111222,11111222,11111222' 
LOOP,urn:ioos:station:wmo:lopl1:1,2011-12-02T09:04:00Z,28.8850,-90.0250,10.0,6.9,19.0,8.2,'11111222,11111222,11111222' 
LOOP,urn:ioos:station:wmo:lopl1:1,2011-12-02T09:19:00Z,28.8850,-90.0250,10.0,7.8,10.0,9.1,'11111222,11111222,11111222' 
LOOP,urn:ioos:station:wmo:lopl1:1,2011-12-02T09:34:00Z,28.8850,-90.0250,10.0,7.6,355.0,8.9,'11111222,11111222,11111222' 
LOOP,urn:ioos:station:wmo:lopl1:1,2011-12-02T09:49:00Z,28.8850,-90.0250,10.0,7.7,9.0,8.8,'11111222,11111222,11111222' 
LOOP,urn:ioos:station:wmo:lopl1:1,2011-12-02T10:04:00Z,28.8850,-90.0250,10.0,8.5,16.0,10.1,'11111222,11111222,11111222' 
LOOP,urn:ioos:station:wmo:lopl1:1,2011-12-02T10:19:00Z,28.8850,-90.0250,10.0,9.2,9.0,10.5,'11111222,11111222,11111222' 
LOOP,urn:ioos:station:wmo:lopl1:1,2011-12-02T10:34:00Z,28.8850,-90.0250,10.0,8.3,11.0,9.7,'11111222,11111222,11111222' 
LOOP,urn:ioos:station:wmo:lopl1:1,2011-12-02T10:49:00Z,28.8850,-90.0250,10.0,8.1,8.0,9.7,'11111222,11111222,11111222' 
LOOP,urn:ioos:station:wmo:lopl1:1,2011-12-02T11:04:00Z,28.8850,-90.0250,10.0,7.8,14.0,9.5,'11111222,11111222,11111222' 
LOOP,urn:ioos:station:wmo:lopl1:1,2011-12-02T11:19:00Z,28.8850,-90.0250,10.0,8.3,20.0,9.5,'11111222,11111222,11111222' 
LOOP,urn:ioos:station:wmo:lopl1:1,2011-12-02T11:34:00Z,28.8850,-90.0250,10.0,8.5,16.0,9.8,'11111222,11111222,11111222' 
LOOP,urn:ioos:station:wmo:lopl1:1,2011-12-02T11:49:00Z,28.8850,-90.0250,10.0,8.8,16.0,10.2,'11111222,11111222,11111222' 
LOOP,urn:ioos:station:wmo:lopl1:1,2011-12-02T12:04:00Z,28.8850,-90.0250,10.0,8.5,14.0,9.9,'11111222,11111222,11111222' 
LOOP,urn:ioos:station:wmo:lopl1:1,2011-12-02T12:19:00Z,28.8850,-90.0250,10.0,8.7,15.0,10.1,'11111222,11111222,11111222' 
LOOP,urn:ioos:station:wmo:lopl1:1,2011-12-02T12:34:00Z,28.8850,-90.0250,10.0,8.3,21.0,10.4,'11111222,11111222,11111222' 
LOOP,urn:ioos:station:wmo:lopl1:1,2011-12-02T12:49:00Z,28.8850,-90.0250,10.0,8.2,19.0,9.9,'11111222,11111222,11111222' 
LOOP,urn:ioos:station:wmo:lopl1:1,2011-12-02T13:04:00Z,28.8850,-90.0250,10.0,8.4,22.0,10.7,'11111222,11111222,11111222' 
LOOP,urn:ioos:station:wmo:lopl1:1,2011-12-02T13:19:00Z,28.8850,-90.0250,10.0,8.7,15.0,10.6,'11111222,11111222,11111222' 
LOOP,urn:ioos:station:wmo:lopl1:1,2011-12-02T13:34:00Z,28.8850,-90.0250,10.0,8.7,18.0,10.2,'11111222,11111222,11111222' 
LOOP,urn:ioos:station:wmo:lopl1:1,2011-12-02T13:49:00Z,28.8850,-90.0250,10.0,7.8,25.0,9.5,'11111222,11111222,11111222' 
LOOP,urn:ioos:station:wmo:lopl1:1,2011-12-02T14:04:00Z,28.8850,-90.0250,10.0,8.2,17.0,10.0,'11111222,11111222,11111222' 
LOOP,urn:ioos:station:wmo:lopl1:1,2011-12-02T14:19:00Z,28.8850,-90.0250,10.0,8.2,15.0,9.4,'11111222,11111222,11111222' 
LOOP,urn:ioos:station:wmo:lopl1:1,2011-12-02T14:34:00Z,28.8850,-90.0250,10.0,7.5,19.0,9.7,'11111222,11111222,11111222' 
LOOP,urn:ioos:station:wmo:lopl1:1,2011-12-02T14:49:00Z,28.8850,-90.0250,10.0,8.1,27.0,9.4,'11111222,11111222,11111222' 
LOOP,urn:ioos:station:wmo:lopl1:1,2011-12-02T15:04:00Z,28.8850,-90.0250,10.0,7.7,30.0,9.3,'11111222,11111222,11111222' 
LOOP,urn:ioos:station:wmo:lopl1:1,2011-12-02T15:19:00Z,28.8850,-90.0250,10.0,7.4,36.0,8.9,'11111222,11111222,11111222' 
LOOP,urn:ioos:station:wmo:lopl1:1,2011-12-02T15:34:00Z,28.8850,-90.0250,10.0,7.8,29.0,9.1,'11111222,11111222,11111222' 
LOOP,urn:ioos:station:wmo:lopl1:1,2011-12-02T15:49:00Z,28.8850,-90.0250,10.0,7.8,34.0,9.5,'11111222,11111222,11111222' 
LOOP,urn:ioos:station:wmo:lopl1:1,2011-12-02T16:04:00Z,28.8850,-90.0250,10.0,8.0,32.0,9.8,'11111222,11111222,11111222' 
LOOP,urn:ioos:station:wmo:lopl1:1,2011-12-02T16:19:00Z,28.8850,-90.0250,10.0,7.7,38.0,9.6,'11111222,11111222,11111222' 
LOOP,urn:ioos:station:wmo:lopl1:1,2011-12-02T16:34:00Z,28.8850,-90.0250,10.0,8.2,28.0,9.5,'11111222,11111222,11111222' 
LOOP,urn:ioos:station:wmo:lopl1:1,2011-12-02T16:49:00Z,28.8850,-90.0250,10.0,8.4,26.0,9.6,'11111222,11111222,11111222' 
LOOP,urn:ioos:station:wmo:lopl1:1,2011-12-02T17:04:00Z,28.8850,-90.0250,10.0,8.3,27.0,9.6,'11111222,11111222,11111222' 
LOOP,urn:ioos:station:wmo:lopl1:1,2011-12-02T17:19:00Z,28.8850,-90.0250,10.0,8.6,27.0,10.1,'11111222,11111222,11111222' 
LOOP,urn:ioos:station:wmo:lopl1:1,2011-12-02T17:34:00Z,28.8850,-90.0250,10.0,8.4,20.0,10.0,'11111222,11111222,11111222' 
LOOP,urn:ioos:station:wmo:lopl1:1,2011-12-02T17:49:00Z,28.8850,-90.0250,10.0,8.5,26.0,10.4,'11111222,11111222,11111222' 
LOOP,urn:ioos:station:wmo:lopl1:1,2011-12-02T18:04:00Z,28.8850,-90.0250,10.0,8.2,26.0,9.7,'11111222,11111222,11111222' 
LOOP,urn:ioos:station:wmo:lopl1:1,2011-12-02T18:19:00Z,28.8850,-90.0250,10.0,8.2,30.0,10.2,'11111222,11111222,11111222' 
LOOP,urn:ioos:station:wmo:lopl1:1,2011-12-02T18:34:00Z,28.8850,-90.0250,10.0,8.0,33.0,9.6,'11111222,11111222,11111222' 
LOOP,urn:ioos:station:wmo:lopl1:1,2011-12-02T18:54:00Z,28.8850,-90.0250,10.0,8.7,27.0,10.1,'11111222,11111222,11111222' 
LOOP,urn:ioos:station:wmo:lopl1:1,2011-12-02T19:09:00Z,28.8850,-90.0250,10.0,8.8,28.0,10.4,'11111222,11111222,11111222' 
LOOP,urn:ioos:station:wmo:lopl1:1,2011-12-02T19:24:00Z,28.8850,-90.0250,10.0,8.4,35.0,10.1,'11111222,11111222,11111222' 
LOOP,urn:ioos:station:wmo:lopl1:1,2011-12-02T19:39:00Z,28.8850,-90.0250,10.0,8.3,32.0,10.5,'11111222,11111222,11111222' 
LOOP,urn:ioos:station:wmo:lopl1:1,2011-12-02T19:54:00Z,28.8850,-90.0250,10.0,8.0,40.0,10.7,'11111222,11111222,11111222' 
LOOP,urn:ioos:station:wmo:lopl1:1,2011-12-02T20:09:00Z,28.8850,-90.0250,10.0,8.2,37.0,10.4,'11111222,11111222,11111222' 
LOOP,urn:ioos:station:wmo:lopl1:1,2011-12-02T20:24:00Z,28.8850,-90.0250,10.0,8.4,35.0,10.1,'11111222,11111222,11111222' 
LOOP,urn:ioos:station:wmo:lopl1:1,2011-12-02T20:39:00Z,28.8850,-90.0250,10.0,8.5,36.0,11.7,'11111222,11111222,11111222' 
LOOP,urn:ioos:station:wmo:lopl1:1,2011-12-02T20:54:00Z,28.8850,-90.0250,10.0,8.4,33.0,11.1,'11111222,11111222,11111222' 
LOOP,urn:ioos:station:wmo:lopl1:1,2011-12-02T21:09:00Z,28.8850,-90.0250,10.0,8.0,42.0,10.5,'11111222,11111222,11111222' 
LOOP,urn:ioos:station:wmo:lopl1:1,2011-12-02T21:24:00Z,28.8850,-90.0250,10.0,8.4,40.0,11.5,'11111222,11111222,11111222' 
LOOP,urn:ioos:station:wmo:lopl1:1,2011-12-02T21:39:00Z,28.8850,-90.0250,10.0,8.7,46.0,12.4,'11111222,11111222,11111222' 
LOOP,urn:ioos:station:wmo:lopl1:1,2011-12-02T21:54:00Z,28.8850,-90.0250,10.0,8.7,56.0,12.2,'11111222,11111222,11111222' 
LOOP,urn:ioos:station:wmo:lopl1:1,2011-12-02T22:09:00Z,28.8850,-90.0250,10.0,8.9,52.0,12.1,'11111222,11111222,11111222' 
LOOP,urn:ioos:station:wmo:lopl1:1,2011-12-02T22:24:00Z,28.8850,-90.0250,10.0,8.5,45.0,12.3,'11111222,11111222,11111222' 
LOOP,urn:ioos:station:wmo:lopl1:1,2011-12-02T22:39:00Z,28.8850,-90.0250,10.0,8.5,35.0,11.0,'11111222,11111222,11111222' 
LOOP,urn:ioos:station:wmo:lopl1:1,2011-12-02T22:54:00Z,28.8850,-90.0250,10.0,8.5,33.0,11.1,'11111222,11111222,11111222' 
LOOP,urn:ioos:station:wmo:lopl1:1,2011-12-02T23:09:00Z,28.8850,-90.0250,10.0,8.3,44.0,12.0,'11111222,11111222,11111222' 
LOOP,urn:ioos:station:wmo:lopl1:1,2011-12-02T23:24:00Z,28.8850,-90.0250,10.0,8.3,47.0,12.8,'11111222,11111222,11111222' 
LOOP,urn:ioos:station:wmo:lopl1:1,2011-12-02T23:39:00Z,28.8850,-90.0250,10.0,8.5,59.0,12.8,'11111222,11111222,11111222' 
LOOP,urn:ioos:station:wmo:lopl1:1,2011-12-02T23:54:00Z,28.8850,-90.0250,10.0,9.5,61.0,12.8,'11111222,11111222,11111222' 
LOOP,urn:ioos:station:wmo:lopl1:1,2011-12-03T00:09:00Z,28.8850,-90.0250,10.0,9.2,63.0,11.6,'11111222,11111222,11111222' 
LOOP,urn:ioos:station:wmo:lopl1:1,2011-12-03T00:24:00Z,28.8850,-90.0250,10.0,10.1,57.0,11.9,'11111222,11111222,11111222' 
LOOP,urn:ioos:station:wmo:lopl1:1,2011-12-03T00:39:00Z,28.8850,-90.0250,10.0,9.8,63.0,12.2,'11111222,11111222,11111222' 
LOOP,urn:ioos:station:wmo:lopl1:1,2011-12-03T00:54:00Z,28.8850,-90.0250,10.0,9.6,56.0,11.6,'11111222,11111222,11111222' 
LOOP,urn:ioos:station:wmo:lopl1:1,2011-12-03T01:09:00Z,28.8850,-90.0250,10.0,8.8,52.0,11.6,'11111222,11111222,11111222' 
LOOP,urn:ioos:station:wmo:lopl1:1,2011-12-03T01:24:00Z,28.8850,-90.0250,10.0,8.1,59.0,11.3,'11111222,11111222,11111222' 
LOOP,urn:ioos:station:wmo:lopl1:1,2011-12-03T01:39:00Z,28.8850,-90.0250,10.0,8.1,65.0,10.6,'11111222,11111222,11111222' 
LOOP,urn:ioos:station:wmo:lopl1:1,2011-12-03T01:54:00Z,28.8850,-90.0250,10.0,8.6,55.0,11.5,'11111222,11111222,11111222' 